Weather in Znamianka

Ukraine / Odesa District     47°00′51″N   30°17′24″E
temp.,
°C
wind,
m/s
gust,
m/s
humid.,
%
clouds,
%
prec.,
mm/h
press.,
hPa
HPBL,
m
13 april, tue
tue1300:00+8s228595 0.0 102131
03:00+7s2279100 0.0 102025
06:00+6sse237590 0.0 102039
09:00+10sse3461100 0.0 1020330
12:00+14sse5547100 0.0 1019976
15:00+15sse6547100 0.0 10181279
18:00+13sse5550100 0.0 1018926
21:00+9se5969100 0.0 1018316
14 april, wed
wed1400:00+8sse4978100 0.0 1018333
03:00+8sse488398 0.0 1017356
06:00+6sse3794100 0.0 1016228
09:00+9se6871100 0.0 1016644
12:00+12se7957100 0.0 10151384
15:00+11se8960100 0.1 10141229
18:00+9se61078100 0.7 10131063
21:00+8ese61191100 3.1 1012630
15 april, thu
thu1500:00+8ese5897100 0.5 1011446
03:00+8sse3694100 0.6 1010314
06:00+8sw3594100 0.1 1010306
09:00+6sw5790100 0.5 1012380
12:00+5w7988100 0.1 1013529
15:00+5w7988100 0.1 1014561
18:00+4w61091100 0.0 1014587
21:00+4w71191100 0.1 1015552
16 april, fri
fri1600:00+4w71196100 0.0 1014552
03:00+3w71195100 0.0 1014586
06:00+3w71196100 0.1 1015596
09:00+4w81291100 0.1 1016714
12:00+5w81283100 0.1 1016990
15:00+7w71077100 0.3 1017986
18:00+6wnw7117991 0.1 1018911
21:00+6wnw498682 0.1 1018455
17 april, sat
sat1700:00+5w3886100 0.0 1019375
03:00+5wsw3887100 0.0 1019460
06:00+4wnw37936 0.0 1020170
09:00+5wnw348786 0.0 1019336
12:00+9w337297 0.0 1019825
15:00+11wsw226199 0.1 10191120
18:00+12sw005496 0.0 10191332
21:00+10se2364100 0.1 101975